Change the Weather History Date:

Saturday, March 30, 2013

  Actual Average Record
Temperature  
Mean Temperature 55 °F -  
Max Temperature 60 °F 59 °F 78 °F (2012)
Min Temperature 50 °F 43 °F 30 °F (2009)
Degree Days  
Heating Degree Days 10    
Growing Degree Days 5 (Base 50)    
Moisture  
Dew Point 49 °F    
Average Humidity 84    
Maximum Humidity 94    
Minimum Humidity 59    
Precipitation  
Precipitation 0.12 in - - ()
Sea Level Pressure  
Sea Level Pressure 29.75 in    
Wind  
Wind Speed 12 mph ()    
Max Wind Speed 25 mph    
Max Gust Speed 36 mph    
Visibility 6.0 miles    
Events Rain    
Averages and records for this station are not official NWS values.
T = Trace of Precipitation, MM = Missing Value Source: Averaged Metar Reports

Daily Weather History Graph

Daily Weather History Graph

Search for Another Location

Airport or City:

Trip Planner

Search our weather history database for the weather conditions in past years. The results will help you decide how hot, cold, wet, or windy it might be!

Date:

Astronomy

Mar. 30, 2013 Rise Set
Actual Time 6:47 AM CET 7:26 PM CET
Civil Twilight 6:18 AM CET 7:55 PM CET
Nautical Twilight 5:43 AM CET 8:30 PM CET
Astronomical Twilight 5:08 AM CET 9:05 PM CET
Moon 11:25 PM CET (3/30) 8:22 AM CET (3/30)
Length of Visible Light 13h 37m
Length of Day
12h 39m
Waning Gibbous, 88% of the Moon is Illuminated
Mar 30
Waning Gibbous
Apr 3
Last Quarter
Apr 10
New
Apr 18
First Quarter
Apr 25
Full

Hourly Weather History & Observations

Time (CET) Temp. Dew Point Humidity Pressure Visibility Wind Dir Wind Speed Gust Speed Precip Events Conditions
12:00 AM 53.6 °F 51.8 °F 94% 29.62 in 4.3 mi NW 13.8 mph - N/A Rain Light Rain
12:30 AM 51.8 °F 50.0 °F 94% 29.62 in 4.3 mi NW 6.9 mph - N/A Rain Light Rain
1:00 AM 52 °F 51 °F 94% 29.65 in 7 mi WNW 6.9 mph - - Rain Light Rain
1:00 AM 51.8 °F 50.0 °F 94% 29.65 in 6.2 mi WNW 6.9 mph - N/A Rain Light Rain
1:30 AM 51.8 °F 50.0 °F 94% 29.65 in 6.2 mi West 6.9 mph - N/A Rain Light Rain
2:00 AM 51.8 °F 50.0 °F 94% 29.65 in 6.2 mi West 9.2 mph - N/A   Overcast
2:30 AM 51.8 °F 50.0 °F 94% 29.65 in 6.2 mi West 9.2 mph - N/A   Mostly Cloudy
3:00 AM 51.8 °F 50.0 °F 94% 29.65 in 6.2 mi WSW 8.1 mph - N/A Rain Light Rain
3:30 AM 51.8 °F 50.0 °F 94% 29.68 in 4.3 mi WSW 8.1 mph - N/A   Mostly Cloudy
4:00 AM 51.8 °F 50.0 °F 94% 29.68 in 5.6 mi WSW 8.1 mph - N/A   Mostly Cloudy
4:30 AM 51.8 °F 50.0 °F 94% 29.68 in 6.2 mi WSW 9.2 mph - N/A   Overcast
5:00 AM 53.6 °F 51.8 °F 94% 29.68 in 6.2 mi WSW 9.2 mph - N/A   Overcast
5:30 AM 53.6 °F 50.0 °F 88% 29.68 in 6.2 mi WSW 9.2 mph - N/A   Mostly Cloudy
6:00 AM 53.6 °F 50.0 °F 88% 29.68 in 3.7 mi WSW 11.5 mph - N/A Rain Light Rain
6:30 AM 51.8 °F 50.0 °F 94% 29.68 in 5.6 mi West 18.4 mph - N/A Rain Light Rain
7:00 AM 52 °F 49 °F 88% 29.71 in 37 mi West 13.8 mph - -   Clear
7:00 AM 51.8 °F 50.0 °F 94% 29.68 in 6.2 mi West 13.8 mph - N/A   Mostly Cloudy
7:30 AM 51.8 °F 50.0 °F 94% 29.71 in 6.2 mi West 11.5 mph - N/A   Mostly Cloudy
8:00 AM 51.8 °F 48.2 °F 88% 29.71 in 6.2 mi West 15.0 mph - N/A   Mostly Cloudy
8:30 AM 51.8 °F 48.2 °F 88% 29.71 in 6.2 mi West 15.0 mph - N/A   Mostly Cloudy
9:00 AM 53.6 °F 48.2 °F 82% 29.71 in 6.2 mi West 15.0 mph - N/A   Mostly Cloudy
9:30 AM 51.8 °F 48.2 °F 88% 29.74 in 5.6 mi West 19.6 mph - N/A Rain Light Rain
10:00 AM 53.6 °F 48.2 °F 82% 29.74 in 6.2 mi West 17.3 mph - N/A   Overcast
10:30 AM 53.6 °F 48.2 °F 82% 29.74 in 6.2 mi West 18.4 mph - N/A   Mostly Cloudy
11:00 AM 57.2 °F 51.8 °F 82% 29.74 in 6.2 mi West 19.6 mph - N/A   Mostly Cloudy
11:30 AM 57.2 °F 48.2 °F 72% 29.74 in 6.2 mi West 23.0 mph - N/A   Mostly Cloudy
12:00 PM 59.0 °F 48.2 °F 67% 29.74 in 6.2 mi West 25.3 mph - N/A   Mostly Cloudy
12:30 PM 57.2 °F 50.0 °F 77% 29.77 in 6.2 mi WNW 19.6 mph - N/A   Mostly Cloudy
1:00 PM 54 °F 48 °F 73% 29.79 in 5 mi WNW 21.9 mph - - Rain Heavy Rain
1:00 PM 53.6 °F 48.2 °F 82% 29.77 in - WNW 21.9 mph 35.7 mph N/A Rain Heavy Rain
1:30 PM 55.4 °F 51.8 °F 88% 29.77 in 6.2 mi West 16.1 mph - N/A   Mostly Cloudy
2:00 PM 59.0 °F 51.8 °F 77% 29.77 in 6.2 mi WNW 19.6 mph 32.2 mph N/A   Mostly Cloudy
2:30 PM 57.2 °F 46.4 °F 67% 29.77 in 6.2 mi West 21.9 mph - N/A   Mostly Cloudy
3:00 PM 59.0 °F 44.6 °F 59% 29.77 in 6.2 mi West 23.0 mph 34.5 mph N/A   Mostly Cloudy
3:30 PM 59.0 °F 48.2 °F 67% 29.77 in 6.2 mi West 23.0 mph - N/A   Mostly Cloudy
4:00 PM 59.0 °F 46.4 °F 63% 29.77 in 6.2 mi West 21.9 mph 34.5 mph N/A   Mostly Cloudy
4:30 PM 57.2 °F 46.4 °F 67% 29.80 in 6.2 mi West 20.7 mph - N/A   Mostly Cloudy
5:00 PM 57.2 °F 46.4 °F 67% 29.80 in 6.2 mi West 20.7 mph - N/A   Mostly Cloudy
5:30 PM 59.0 °F 46.4 °F 63% 29.80 in 6.2 mi West 21.9 mph - N/A   Mostly Cloudy
6:00 PM 57.2 °F 46.4 °F 67% 29.80 in 6.2 mi West 19.6 mph 31.1 mph N/A   Overcast
6:30 PM 55.4 °F 42.8 °F 63% 29.83 in 6.2 mi WNW 19.6 mph 33.4 mph N/A   Mostly Cloudy
7:00 PM 52 °F 47 °F 76% 29.85 in 9 mi NW 11.5 mph - - Rain Light Rain
7:00 PM 51.8 °F 46.4 °F 82% 29.83 in 6.2 mi NW 11.5 mph - N/A Rain Light Rain
7:30 PM 51.8 °F 48.2 °F 88% 29.83 in 4.3 mi WNW 13.8 mph - N/A Rain Light Rain
8:00 PM 51.8 °F 48.2 °F 88% 29.83 in 6.2 mi West 10.4 mph - N/A   Mostly Cloudy
8:30 PM 51.8 °F 48.2 °F 88% 29.86 in 6.2 mi West 10.4 mph - N/A   Mostly Cloudy
9:00 PM 50.0 °F 48.2 °F 94% 29.86 in 6.2 mi West 9.2 mph - N/A   Partly Cloudy
9:30 PM 50.0 °F 46.4 °F 87% 29.86 in 6.2 mi West 10.4 mph - N/A   Mostly Cloudy
10:00 PM 50.0 °F 48.2 °F 94% 29.86 in 6.2 mi WSW 9.2 mph - N/A   Mostly Cloudy
10:30 PM 50.0 °F 48.2 °F 94% 29.86 in 6.2 mi West 10.4 mph - N/A   Mostly Cloudy
11:00 PM 50.0 °F 46.4 °F 87% 29.86 in 6.2 mi West 9.2 mph - N/A   Mostly Cloudy
11:30 PM 50.0 °F 48.2 °F 94% 29.86 in 5.6 mi West 6.9 mph - N/A   Mostly Cloudy